Stations météo

réclame
Mon MeteoGroup
Charleroi/Gosselies, Belgique (6449): Température de l'air & dewpoint: 20.10.2020 22:00:00 - 26.10.2020 22:00:00 (CET)Charleroi/Gosselies, Belgique (6449): Vitesse du vent & gusts: 20.10.2020 22:00:00 - 26.10.2020 22:00:00 (CET)Charleroi/Gosselies, Belgique (6449): Direction du vent: 20.10.2020 22:00:00 - 26.10.2020 22:00:00 (CET)Charleroi/Gosselies, Belgique (6449): reduced air pressure: 20.10.2020 22:00:00 - 26.10.2020 22:00:00 (CET)Charleroi/Gosselies, Belgique (6449): visibility: 20.10.2020 22:00:00 - 26.10.2020 22:00:00 (CET)
Date & Time tt [°C] td [°C] ff [km/h] ff [knt] fx [km/h] fx [knt] dd ppp [hPa] vv [km]
26.10.2020 22:00:00 9,1 6,4 22 12 - - SSW 1004,5 10
26.10.2020 21:00:00 9,1 6,5 18 10 32 18 SSW 1003,9 10
26.10.2020 20:00:00 9,0 7,0 16 9 36 19 SSW 1003,5 10
26.10.2020 19:00:00 9,1 6,9 22 12 - - SSW 1003,4 9
26.10.2020 18:00:00 9,3 6,8 16 9 32 18 SSW 1003,0 10
26.10.2020 17:00:00 10,1 7,1 22 12 40 21 WSW 1002,9 10
26.10.2020 16:00:00 11,4 5,5 28 15 - - SW 1002,2 10
26.10.2020 15:00:00 11,5 5,4 28 15 47 25 SW 1002,0 10
26.10.2020 14:00:00 11,8 5,2 34 18 50 27 SW 1001,7 10
26.10.2020 13:00:00 11,4 5,2 31 17 - - SW 1002,1 10
26.10.2020 12:00:00 10,2 5,1 34 18 47 25 SSW 1002,6 10
26.10.2020 11:00:00 9,6 5,2 29 16 47 25 SSW 1002,4 10
26.10.2020 10:00:00 8,8 5,7 29 16 - - SW 1002,9 10
26.10.2020 09:00:00 8,4 5,4 22 12 40 21 SSW 1002,6 10
26.10.2020 08:00:00 8,5 5,7 21 11 40 21 SSW 1002,5 10
26.10.2020 07:00:00 8,3 6,4 18 10 - - SSW 1001,6 10
26.10.2020 06:00:00 8,0 6,1 18 10 29 16 SSW 1001,3 10
26.10.2020 05:00:00 8,4 6,9 18 10 25 14 SSW 1001,5 10
26.10.2020 04:00:00 8,7 7,4 16 9 - - SSW 1001,6 10
26.10.2020 03:00:00 9,0 7,7 11 6 25 14 SSW 1001,3 10
26.10.2020 02:00:00 9,2 7,7 15 8 25 14 SW 1001,4 10
26.10.2020 01:00:00 9,3 8,1 16 9 - - SSW 1001,7 10
26.10.2020 00:00:00 9,3 7,9 16 9 29 16 SSW 1001,7 10
25.10.2020 23:00:00 9,6 8,6 15 8 29 16 S 1002,0 10
25.10.2020 22:00:00 10,0 8,6 18 10 - - SSW 1002,1 6
25.10.2020 21:00:00 10,0 8,3 21 11 32 18 S 1002,2 10
25.10.2020 20:00:00 10,0 8,3 18 10 36 19 SSW 1002,5 10
25.10.2020 19:00:00 10,4 8,4 21 11 - - SSW 1002,5 10
25.10.2020 18:00:00 10,4 8,4 18 10 32 18 SSW 1002,7 10
25.10.2020 17:00:00 10,8 8,7 18 10 36 19 S 1002,2 10
25.10.2020 16:00:00 10,8 8,3 21 11 - - S 1002,0 10
25.10.2020 15:00:00 10,9 9,0 18 10 36 19 S 1002,4 10
25.10.2020 14:00:00 10,9 8,8 22 12 36 19 SSW 1002,6 10
25.10.2020 13:00:00 11,0 9,5 18 10 - - SSW 1003,3 9
25.10.2020 12:00:00 11,1 9,7 21 11 40 21 S 1002,8 10
25.10.2020 11:00:00 11,1 10,0 22 12 36 19 SSW 1002,9 10
25.10.2020 10:00:00 11,5 10,2 22 12 - - SSW 1003,0 10
25.10.2020 09:00:00 11,2 10,0 18 10 36 19 S 1002,6 10
25.10.2020 08:00:00 11,1 10,1 22 12 40 21 SSW 1003,7 10
25.10.2020 07:00:00 11,4 10,0 24 13 - - SSW 1003,1 7
25.10.2020 06:00:00 11,8 10,0 26 14 54 29 SSW 1003,1 8
25.10.2020 05:00:00 13,0 9,5 37 20 58 31 SSW 1003,1 10
25.10.2020 04:00:00 14,1 9,1 26 14 - - S 1003,2 10
25.10.2020 03:00:00 13,5 9,6 29 16 58 31 S 1004,1 10
25.10.2020 02:00:00 13,5 9,7 31 17 54 29 S 1004,5 10
25.10.2020 01:00:00 - - - - - - - - -
25.10.2020 00:00:00 14,0 10,6 29 16 58 31 S 1006,2 10
24.10.2020 23:00:00 14,3 10,6 31 17 61 33 S 1006,5 10
24.10.2020 22:00:00 14,3 10,9 34 18 - - S 1007,0 10
24.10.2020 21:00:00 14,3 11,3 34 18 54 29 S 1007,2 10
24.10.2020 20:00:00 14,2 11,4 26 14 43 23 S 1008,4 10
24.10.2020 19:00:00 13,9 11,9 29 16 - - S 1009,0 10
24.10.2020 18:00:00 13,7 11,9 29 16 47 25 SSW 1009,6 17
24.10.2020 17:00:00 14,0 11,5 28 15 47 25 SSW 1010,1 10
24.10.2020 16:00:00 14,0 11,7 31 17 - - SSW 1010,4 10
24.10.2020 15:00:00 14,0 11,4 28 15 40 21 S 1011,0 10
24.10.2020 14:00:00 13,1 11,8 24 13 40 21 SSW 1011,8 10
24.10.2020 13:00:00 12,4 11,4 24 13 - - SSW 1012,5 3,3
24.10.2020 12:00:00 13,4 10,5 29 16 50 27 SSW 1012,8 10
24.10.2020 11:00:00 13,0 9,9 29 16 47 25 SSW 1013,1 10
24.10.2020 10:00:00 12,1 9,7 22 12 - - SSW 1013,2 10
24.10.2020 09:00:00 11,2 10,0 28 15 47 25 SSW 1013,2 8
24.10.2020 08:00:00 11,5 9,6 26 14 43 23 SSW 1012,9 10
24.10.2020 07:00:00 11,5 9,6 18 10 - - SSW 1013,0 10
24.10.2020 06:00:00 11,4 9,6 21 11 32 18 SSW 1013,4 10
24.10.2020 05:00:00 11,2 9,8 15 8 29 16 SSW 1013,6 10
24.10.2020 04:00:00 11,5 9,9 18 10 - - SSW 1013,6 10
24.10.2020 03:00:00 12,1 9,9 16 9 32 18 SSW 1014,0 10
24.10.2020 02:00:00 12,0 10,0 18 10 29 16 SSW 1013,9 10
24.10.2020 01:00:00 12,4 10,5 18 10 - - SSW 1013,6 30
24.10.2020 00:00:00 12,5 10,6 15 8 25 14 SSW 1013,9 10
23.10.2020 23:00:00 13,0 10,6 18 10 25 14 SW 1013,9 10
23.10.2020 22:00:00 13,3 10,7 16 9 - - SW 1013,2 10
23.10.2020 21:00:00 13,6 11,0 21 11 29 16 SSW 1012,5 10
23.10.2020 20:00:00 13,6 10,3 15 8 22 12 SSW 1012,1 10
23.10.2020 19:00:00 14,0 10,7 15 8 - - SSW 1011,9 10
23.10.2020 18:00:00 14,6 10,5 16 9 22 12 SSW 1011,6 10
23.10.2020 17:00:00 15,3 11,2 13 7 25 14 SW 1011,3 10
23.10.2020 16:00:00 16,2 12,2 16 9 - - WSW 1010,9 10
23.10.2020 15:00:00 16,0 12,0 21 11 29 16 WSW 1010,7 10
23.10.2020 14:00:00 15,9 12,4 18 10 29 16 WSW 1010,7 10
23.10.2020 13:00:00 15,0 12,6 22 12 - - SW 1011,0 10
23.10.2020 12:00:00 14,8 13,0 18 10 25 14 SW 1011,4 10
23.10.2020 11:00:00 14,2 13,3 13 7 18 10 SSW 1011,4 10
23.10.2020 10:00:00 13,6 13,0 11 6 - - S 1011,5 7
23.10.2020 09:00:00 13,5 12,7 13 7 18 10 SSW 1011,5 4,0
23.10.2020 08:00:00 13,6 12,8 11 6 22 12 SSW 1011,1 8
23.10.2020 07:00:00 13,7 13,0 13 7 - - SSW 1011,0 7
23.10.2020 06:00:00 13,6 13,0 9 5 14 8 S 1011,2 6
23.10.2020 05:00:00 13,5 12,9 5 3 14 8 SSW 1011,4 9
23.10.2020 04:00:00 13,6 12,6 11 6 - - SSW 1011,9 10
23.10.2020 03:00:00 13,5 12,6 8 4 14 8 SSW 1012,3 10
23.10.2020 02:00:00 13,4 12,6 11 6 14 8 S 1012,8 10
23.10.2020 01:00:00 13,9 13,0 11 6 - - S 1013,1 15
23.10.2020 00:00:00 13,9 13,2 9 5 14 8 SSW 1013,0 10
22.10.2020 23:00:00 14,0 12,8 11 6 14 8 SSW 1013,1 10
22.10.2020 22:00:00 13,9 12,7 11 6 - - SSW 1013,2 25
22.10.2020 21:00:00 13,8 12,9 11 6 18 10 S 1012,8 10
22.10.2020 20:00:00 14,6 13,2 11 6 18 10 SW 1012,7 10
22.10.2020 19:00:00 14,9 13,3 11 6 - - SW 1012,7 10
22.10.2020 18:00:00 15,3 13,6 15 8 22 12 SW 1012,2 10
22.10.2020 17:00:00 16,0 13,4 16 9 29 16 WSW 1012,0 10
22.10.2020 16:00:00 16,1 13,9 16 9 - - SW 1011,6 10
22.10.2020 15:00:00 16,6 12,9 26 14 36 19 WSW 1011,7 10
22.10.2020 14:00:00 16,1 13,2 21 11 36 19 WSW 1011,9 10
22.10.2020 13:00:00 16,2 12,9 22 12 - - SSW 1012,0 10
22.10.2020 12:00:00 16,1 12,7 22 12 36 19 SSW 1012,4 10
22.10.2020 11:00:00 15,5 12,6 21 11 32 18 SSW 1012,4 10
22.10.2020 10:00:00 15,2 12,6 24 13 - - SSW 1012,6 10
22.10.2020 09:00:00 14,5 12,7 18 10 32 18 SSW 1012,4 10
22.10.2020 08:00:00 14,2 12,6 13 7 29 16 SSW 1011,7 10
22.10.2020 07:00:00 14,3 12,4 16 9 - - SSW 1011,1 10
22.10.2020 06:00:00 14,1 12,0 21 11 29 16 SSW 1010,9 10
22.10.2020 05:00:00 13,8 11,6 16 9 22 12 SSW 1010,6 10
22.10.2020 04:00:00 13,7 11,4 15 8 - - SSW 1010,7 10
22.10.2020 03:00:00 13,5 11,3 15 8 25 14 SSW 1010,6 10
22.10.2020 02:00:00 13,8 11,5 16 9 25 14 SSW 1010,4 10
22.10.2020 01:00:00 14,4 11,5 16 9 - - SSW 1009,9 10
22.10.2020 00:00:00 15,4 11,7 22 12 36 19 SW 1009,2 10
21.10.2020 23:00:00 16,0 12,1 18 10 32 18 SSW 1008,6 10
21.10.2020 22:00:00 16,2 12,5 22 12 - - SSW 1007,9 10
21.10.2020 21:00:00 16,2 12,7 22 12 43 23 SSW 1006,9 10
21.10.2020 20:00:00 17,6 12,4 29 16 43 23 SSW 1005,9 10
21.10.2020 19:00:00 17,6 13,0 28 15 - - SSW 1004,9 10
21.10.2020 18:00:00 18,2 12,5 32 18 58 31 SSW 1003,8 25
21.10.2020 17:00:00 18,6 12,5 41 22 72 39 SSW 1002,7 10
21.10.2020 16:00:00 19,2 12,1 42 23 - - SSW 1001,7 10
21.10.2020 15:00:00 19,4 12,1 44 24 79 43 SSW 1000,9 10
21.10.2020 14:00:00 19,4 11,9 46 25 72 39 SSW 1000,4 10
21.10.2020 13:00:00 19,0 11,6 42 23 - - SSW 1000,0 10
21.10.2020 12:00:00 17,6 10,1 41 22 68 37 S 1000,6 10
21.10.2020 11:00:00 16,3 9,8 37 20 65 35 S 1000,8 10
21.10.2020 10:00:00 14,0 9,8 26 14 - - S 1001,3 10
21.10.2020 09:00:00 12,8 10,5 22 12 40 21 S 1002,2 10
21.10.2020 08:00:00 12,4 10,3 21 11 43 23 S 1002,8 10
21.10.2020 07:00:00 12,4 10,6 16 9 - - S 1002,8 10
21.10.2020 06:00:00 11,9 10,8 18 10 40 21 S 1003,4 10
21.10.2020 05:00:00 11,5 10,7 18 10 32 18 SSE 1003,5 10
21.10.2020 04:00:00 11,8 10,5 18 10 - - SSE 1003,9 10
21.10.2020 03:00:00 12,1 11,0 16 9 29 16 S 1005,1 10
21.10.2020 02:00:00 12,3 11,5 16 9 29 16 S 1005,9 10
21.10.2020 01:00:00 12,6 11,7 16 9 - - SSE 1006,1 10
21.10.2020 00:00:00 12,7 12,1 16 9 29 16 SSE 1006,8 10
20.10.2020 23:00:00 13,0 12,1 21 11 29 16 S 1007,4 10
20.10.2020 22:00:00 13,0 12,0 15 8 - - S 1007,9 10

tt = Température de l'air
td = dewpoint
ff = Vitesse du vent
fx = gusts
dd = Direction du vent
ppp = reduced air pressure
vv = visibility

stations d'obs. à proximité